Regional Weather Roundup
Issued by NWS

Home | Current Version | Previous Version | Graphics & Text | Print | Product List | Glossary Off
Versions: 1 2 3 4 5 6 7 8 9 10 11 12 13 14 15 16 17 18 19 20 21 22 23 24 25 26 27 28 29 30 31 32 33 34 35 36 37 38 39 40 41 42 43 44 45 46 47 48 49 50

000
ASUS43 KDTX 191910
RWRMI
MICHIGAN HOURLY REGIONAL WEATHER ROUNDUP
NATIONAL WEATHER SERVICE DETROIT/PONTIAC MI
200 PM EST FRI JAN 19 2018

NOTE: "FAIR" INDICATES FEW OR NO CLOUDS BELOW 12,000 FEET WITH NO
SIGNIFICANT WEATHER AND/OR OBSTRUCTION TO VISIBILITY.

MIZ047>049-052>055-059>063-066>070-074>076-081>083-192000-
SOUTHEAST LOWER MICHIGAN

CITY           SKY/WX    TMP DP  RH WIND       PRES   REMARKS
ADRIAN         FAIR      31  20  63 SW16      29.90F WCI  20
ALMA           FAIR      35  25  66 SW13G24   29.76F WCI  26
ANN ARBOR      FAIR      33  21  61 S13G20    29.86F WCI  24
BAD AXE        FAIR      35  23  61 SW12G20   29.75F WCI  27
CARO           FAIR      36  23  60 SW13      29.75F WCI  27
DETROIT CITY   FAIR      35  21  56 SW18G25   29.85F WCI  24
DETROIT        PTSUNNY   35  21  56 SW20      29.88F WCI  24
FLINT          FAIR      36  21  54 SW12      29.79F WCI  28
GROSSE ILE     FAIR      34  21  57 SW16      29.88F WCI  24
HILLSDALE      FAIR      34  19  55 S10G17    29.84F WCI  26
HOWELL         FAIR      37  23  56 SW13      29.80F WCI  29

CITY           SKY/WX    TMP DP  RH WIND       PRES   REMARKS
JACKSON        FAIR      36  21  54 SW17G26   29.83F WCI  26
LAMBERTVILLE   FAIR      35  19  52 SW8       29.90F WCI  28
LANSING        FAIR      36  22  56 SW16      29.80F WCI  26
LAPEER         FAIR      38  23  54 SW9       29.78F WCI  32
MASON          FAIR      37  19  48 SW8       29.80F WCI  31
MONROE         FAIR      33  19  56 SW18      29.89F WCI  22
MT. CLEMENS    PTSUNNY   33  19  55 SW14G22   29.84F WCI  24
PONTIAC        PTSUNNY   37  21  52 S10       29.79F WCI  30
PORT HOPE        N/A     36  23  59 SW7G20    29.72F WCI  30
PORT HURON     FAIR      34  19  55 S13G18    29.82F WCI  25
TRI CITIES     FAIR      35  24  64 SW21G29   29.75F WCI  24
MIDLAND        FAIR      36  26  67 SW14      29.75S WCI  27
TROY           FAIR      36  21  54 S13G20    29.85F WCI  27
SAGINAW HB     FAIR      34  25  69 SW20      29.75F WCI  22
$$
MIZ043>046-050>051-056>058-064>065-071>073-077>080-192000-
SOUTHWEST LOWER MICHIGAN

CITY           SKY/WX    TMP DP  RH WIND       PRES   REMARKS
BATTLE CREEK   FAIR      33  21  61 S17       29.83F WCI  22
BENTON HARBOR  FAIR      35  19  52 S17G24    29.83F WCI  25
BIG RAPIDS     FAIR      38  26  61 SW14G22   29.71F WCI  29
COLDWATER      FAIR      34  20  56 SW10G17   29.86F WCI  26
FREMONT        FAIR      36  24  62 SW17G23   29.75F WCI  25
HOLLAND        FAIR      35  22  58 SW16G25   29.80F WCI  25
GRAND RAPIDS   CLOUDY    37  23  56 S13       29.79F WCI  29
IONIA          FAIR      36  23  59 SW16G22   29.78F WCI  26
KALAMAZOO      FAIR      35  21  56 S15       29.83F WCI  25
LUDINGTON      FAIR      36  29  76 S18G24    29.71F WCI  25
MARSHALL       FAIR      33  19  56 S12G20    29.84F WCI  25
MOUNT PLEASANT FAIR      37  26  63 S12G17    29.73F WCI  30
MUSKEGON       CLOUDY    36  26  67 S20G30    29.78F WCI  25
SOUTH HAVEN    FAIR      37  20  49 S10G16    29.81F WCI  30
$$
MIZ016>042-192000-
NORTHERN LOWER MICHIGAN

CITY           SKY/WX    TMP DP  RH WIND       PRES   REMARKS
ALPENA         FAIR      38  27  64 SW7       29.64F WCI  33
BEAVER ISLAND  FAIR      36  31  83 SW20G29   29.58F WCI  25
BELLAIRE       FAIR      38  29  70 SW9G16    29.64F WCI  32
CADILLAC       FAIR      37  28  70 SW16      29.65F WCI  28
CHARLEVOIX     FAIR      35  28  76 S14G20    29.64F WCI  26
FRANKFORT      FAIR      37  30  75 SW12G23   29.68S WCI  29
GAYLORD        FAIR      37  27  67 SW13      29.60F WCI  29
GRAYLING       FAIR      38  26  60 SW9       29.66F WCI  32
HARBOR SPRINGS FAIR      35  27  74 SW8       29.61F WCI  28
HOUGHTON LAKE  FAIR      37  27  67 SW9       29.68F WCI  30
MANISTEE       FAIR      38  27  64 SW12G23   29.68  WCI  30
OSCODA         FAIR      34  25  68 SW13G18   29.69S WCI  25
PELLSTON       FAIR      36  27  69 SW13G20   29.60F WCI  27
ROGERS CITY    FAIR      37  27  65 SW6       29.62F WCI  33
TRAVERSE CITY  CLOUDY    40  28  62 S12G17    29.63F WCI  33
$$
MIZ007>008-015-192000-
EASTERN UPPER MICHIGAN

CITY           SKY/WX    TMP DP  RH WIND       PRES   REMARKS
KINROSS        CLOUDY    34  29  82 SW13G21   29.56F WCI  25
MACKINAC ISLAN FAIR      34  28  80 SW7       29.58F WCI  28
NEWBERRY       FAIR      33  29  87 S21G29    29.52F WCI  21
S. S. MARIE    CLOUDY    37  29  72 S9G18     29.56F WCI  30
MUNISING         N/A     32  25  75 S21G26    29.46F WCI  20
$$
MIZ004>006-011>014-085-192000-
CENTRAL UPPER MICHIGAN

CITY           SKY/WX    TMP DP  RH WIND       PRES   REMARKS
MANISTIQUE     CLOUDY    32  30  93 SW14G25   29.56F WCI  22
ESCANABA       FAIR      30  24  78 S14G22    29.56F WCI  19
MENOMINEE      FAIR      33  24  69 SW9       29.60F WCI  25
SAWYER-GWINN   CLOUDY    32  23  69 SW15      29.47F WCI  22
$$
MIZ001>003-009>011-084-192000-
WESTERN UPPER MICHIGAN

CITY           SKY/WX    TMP DP  RH WIND       PRES   REMARKS
IRON MOUNTAIN  FAIR      33  25  72 S7        29.50F WCI  27
HOUGHTON       FAIR      40  25  55 SW6       29.38F
COPPER HARBOR    N/A     36  26  67 SW7       29.37F WCI  30
IRONWOOD       CLOUDY    40  24  53 S7        29.43F
$$

ABBREVIATIONS USED IN REMARKS
   TC - TEMPERATURE IN CELSIUS
  WCI - WIND CHILL INDEX
   HX - HEAT INDEX
  VSB - VISIBILITY




USA.gov is the U.S. government's official web portal to all federal, state and local government web resources and services.